• In Sweden
  • List of Countries
  • For 7 days
  • Water Temperature
  • Satellite Maps
  • Weather Map
  • Weather Widgets
  • user-avatar
    Login

    Hourly Weather Golden Sands

    Today, 22 September, Saturday

    Time Temperature Precipitation Wind Pressure Humidity
    00:00 +21°C° 0 mm 1 mps 762 mmHg 81%
    01:00 +20°C° 0 mm 1 mps 762 mmHg 80%
    02:00 +20°C° 0 mm 1 mps 762 mmHg 80%
    03:00 +20°C° 0 mm 1 mps 762 mmHg 79%
    04:00 +20°C° 0 mm 1 mps 762 mmHg 77%
    05:00 +20°C° 0 mm 1 mps 762 mmHg 76%
    06:00 +21°C° 0 mm 1 mps 762 mmHg 70%
    07:00 +22°C° 0 mm 1 mps 762 mmHg 65%
    08:00 +23°C° 0 mm 1 mps 762 mmHg 59%
    09:00 +25°C° 0 mm 1 mps 762 mmHg 53%
    10:00 +26°C° 0 mm 1 mps 762 mmHg 46%
    11:00 +28°C° 0 mm 1 mps 762 mmHg 40%
    12:00 +29°C° 0 mm 2 mps 762 mmHg 38%
    13:00 +29°C° 0 mm 2 mps 761 mmHg 37%
    14:00 +30°C° 0 mm 2 mps 761 mmHg 35%
    15:00 +29°C° 0 mm 2 mps 761 mmHg 38%
    16:00 +28°C° 0 mm 2 mps 761 mmHg 42%
    17:00 +27°C° 0 mm 2 mps 761 mmHg 46%
    18:00 +26°C° 0 mm 2 mps 761 mmHg 52%
    19:00 +24°C° 0 mm 2 mps 761 mmHg 58%
    20:00 +23°C° 0 mm 2 mps 761 mmHg 64%
    21:00 +21°C° 0 mm 2 mps 761 mmHg 65%
    22:00 +21°C° 0 mm 3 mps 761 mmHg 67%
    23:00 +21°C° 0 mm 3 mps 762 mmHg 68%

    Tomorrow, 23 September, Sunday

    Time Temperature Precipitation Wind Pressure Humidity
    00:00 +21°C° 0 mm 3 mps 762 mmHg 67%
    01:00 +21°C° 0 mm 3 mps 762 mmHg 66%
    02:00 +21°C° 0 mm 3 mps 762 mmHg 66%
    03:00 +21°C° 0 mm 4 mps 762 mmHg 62%
    04:00 +21°C° 0 mm 4 mps 762 mmHg 58%
    05:00 +21°C° 0 mm 4 mps 762 mmHg 54%
    06:00 +21°C° 0 mm 5 mps 762 mmHg 56%
    07:00 +21°C° 0 mm 5 mps 763 mmHg 59%
    08:00 +21°C° 0 mm 6 mps 763 mmHg 61%
    09:00 +22°C° 0 mm 6 mps 763 mmHg 57%
    10:00 +24°C° 0 mm 6 mps 764 mmHg 53%
    11:00 +26°C° 0 mm 6 mps 764 mmHg 49%
    12:00 +26°C° 0 mm 5 mps 764 mmHg 47%
    13:00 +27°C° 0 mm 5 mps 764 mmHg 46%
    14:00 +27°C° 0 mm 4 mps 764 mmHg 44%
    15:00 +27°C° 0 mm 4 mps 763 mmHg 48%
    16:00 +26°C° 0 mm 4 mps 763 mmHg 52%
    17:00 +25°C° 0 mm 5 mps 763 mmHg 56%
    18:00 +23°C° 0 mm 5 mps 763 mmHg 62%
    19:00 +22°C° 0 mm 4 mps 764 mmHg 68%
    20:00 +20°C° 0 mm 4 mps 764 mmHg 74%
    21:00 +20°C° 0 mm 4 mps 764 mmHg 76%
    22:00 +20°C° 0 mm 4 mps 764 mmHg 79%
    23:00 +20°C° 0 mm 4 mps 764 mmHg 81%

    Day after tomorrow, 24 September, Monday

    Time Temperature Precipitation Wind Pressure Humidity
    00:00 +20°C° 0 mm 5 mps 763 mmHg 83%
    01:00 +20°C° 0 mm 5 mps 763 mmHg 86%
    02:00 +20°C° 0 mm 5 mps 762 mmHg 88%
    03:00 +20°C° 0 mm 5 mps 762 mmHg 90%
    04:00 +20°C° 0 mm 5 mps 761 mmHg 91%
    05:00 +20°C° 0 mm 5 mps 761 mmHg 93%
    06:00 +21°C° 0 mm 5 mps 761 mmHg 89%
    07:00 +22°C° 0 mm 6 mps 760 mmHg 86%
    08:00 +23°C° 0 mm 6 mps 760 mmHg 82%
    09:00 +24°C° 0 mm 6 mps 760 mmHg 75%
    10:00 +27°C° 0 mm 6 mps 759 mmHg 67%
    11:00 +28°C° 0 mm 7 mps 759 mmHg 60%
    12:00 +29°C° 0 mm 7 mps 758 mmHg 55%
    13:00 +30°C° 0 mm 7 mps 758 mmHg 51%
    14:00 +32°C° 0 mm 6 mps 757 mmHg 46%
    15:00 +32°C° 0 mm 6 mps 757 mmHg 47%
    16:00 +30°C° 0 mm 6 mps 757 mmHg 48%
    17:00 +30°C° 0 mm 5 mps 757 mmHg 48%
    18:00 +28°C° 0 mm 6 mps 758 mmHg 47%
    19:00 +27°C° 0 mm 7 mps 759 mmHg 45%
    20:00 +26°C° 0 mm 8 mps 760 mmHg 43%
    21:00 +23°C° 0 mm 9 mps 761 mmHg 44%
    22:00 +21°C° 0 mm 10 mps 762 mmHg 45%
    23:00 +19°C° 0 mm 11 mps 762 mmHg 46%

    25 September, Tuesday

    Time Temperature Precipitation Wind Pressure Humidity
    00:00 +18°C° 0 mm 10 mps 763 mmHg 47%
    01:00 +17°C° 0 mm 9 mps 764 mmHg 48%
    02:00 +17°C° 0 mm 8 mps 764 mmHg 49%
    03:00 +17°C° 0 mm 8 mps 765 mmHg 49%
    04:00 +16°C° 0 mm 8 mps 765 mmHg 49%
    05:00 +16°C° 0 mm 8 mps 766 mmHg 49%
    06:00 +16°C° 0 mm 7 mps 766 mmHg 50%
    07:00 +16°C° 0 mm 7 mps 767 mmHg 51%
    08:00 +15°C° 0 mm 6 mps 767 mmHg 52%
    09:00 +16°C° 0 mm 6 mps 768 mmHg 47%
    10:00 +16°C° 0 mm 6 mps 768 mmHg 42%
    11:00 +17°C° 0 mm 6 mps 768 mmHg 36%
    12:00 +17°C° 0 mm 6 mps 768 mmHg 34%
    13:00 +17°C° 0 mm 6 mps 768 mmHg 33%
    14:00 +19°C° 0 mm 6 mps 768 mmHg 31%
    15:00 +19°C° 0 mm 6 mps 768 mmHg 30%
    16:00 +19°C° 0 mm 6 mps 768 mmHg 30%
    17:00 +19°C° 0 mm 5 mps 768 mmHg 30%
    18:00 +17°C° 0 mm 6 mps 769 mmHg 31%
    19:00 +16°C° 0 mm 6 mps 769 mmHg 32%
    20:00 +15°C° 0 mm 7 mps 770 mmHg 34%
    21:00 +14°C° 0 mm 7 mps 770 mmHg 34%
    22:00 +13°C° 0 mm 8 mps 771 mmHg 35%
    23:00 +13°C° 0 mm 8 mps 771 mmHg 36%

    26 September, Wednesday

    Time Temperature Precipitation Wind Pressure Humidity
    00:00 +12°C° 0 mm 8 mps 771 mmHg 37%
    01:00 +12°C° 0 mm 9 mps 771 mmHg 37%
    02:00 +11°C° 0 mm 9 mps 771 mmHg 38%
    03:00 +11°C° 0 mm 9 mps 771 mmHg 42%
    04:00 +10°C° 0 mm 8 mps 772 mmHg 45%
    05:00 +9°C° 0 mm 8 mps 772 mmHg 48%
    06:00 +10°C° 0 mm 8 mps 772 mmHg 48%
    07:00 +10°C° 0 mm 8 mps 772 mmHg 49%
    08:00 +11°C° 0 mm 7 mps 772 mmHg 49%
    09:00 +12°C° 0 mm 7 mps 772 mmHg 43%
    10:00 +14°C° 0 mm 7 mps 772 mmHg 37%
    11:00 +16°C° 0 mm 6 mps 771 mmHg 32%
    12:00 +16°C° 0 mm 6 mps 771 mmHg 30%
    13:00 +17°C° 0 mm 6 mps 770 mmHg 28%
    14:00 +17°C° 0 mm 6 mps 770 mmHg 26%
    15:00 +17°C° 0 mm 5 mps 769 mmHg 26%
    16:00 +17°C° 0 mm 5 mps 769 mmHg 27%
    17:00 +18°C° 0 mm 4 mps 769 mmHg 27%
    18:00 +17°C° 0 mm 4 mps 769 mmHg 30%
    19:00 +15°C° 0 mm 4 mps 769 mmHg 32%
    20:00 +13°C° 0 mm 4 mps 769 mmHg 34%
    21:00 +13°C° 0 mm 4 mps 769 mmHg 35%
    22:00 +13°C° 0 mm 5 mps 769 mmHg 35%
    23:00 +13°C° 0 mm 5 mps 769 mmHg 36%

    27 September, Thursday

    Time Temperature Precipitation Wind Pressure Humidity
    00:00 +11°C° 0 mm 6 mps 768 mmHg 44%
    01:00 +11°C° 0 mm 8 mps 768 mmHg 53%
    02:00 +10°C° 0 mm 9 mps 768 mmHg 61%
    03:00 +10°C° 0.2 mm 9 mps 768 mmHg 64%
    04:00 +8°C° 0.2 mm 9 mps 768 mmHg 67%
    05:00 +8°C° 0.2 mm 9 mps 768 mmHg 71%
    06:00 +8°C° 0.3 mm 10 mps 768 mmHg 68%
    07:00 +9°C° 0.3 mm 10 mps 768 mmHg 65%
    08:00 +9°C° 0.3 mm 11 mps 768 mmHg 63%
    09:00 +11°C° 0.4 mm 11 mps 768 mmHg 56%
    10:00 +13°C° 0.4 mm 11 mps 768 mmHg 50%
    11:00 +14°C° 0.4 mm 11 mps 768 mmHg 44%
    12:00 +16°C° 0.4 mm 11 mps 768 mmHg 42%
    13:00 +16°C° 0.4 mm 11 mps 768 mmHg 40%
    14:00 +17°C° 0.4 mm 11 mps 768 mmHg 38%
    15:00 +17°C° 0.4 mm 10 mps 768 mmHg 39%
    16:00 +16°C° 0.4 mm 10 mps 767 mmHg 40%
    17:00 +16°C° 0.4 mm 9 mps 767 mmHg 41%
    18:00 +15°C° 0.4 mm 9 mps 767 mmHg 43%
    19:00 +13°C° 0.4 mm 8 mps 768 mmHg 46%
    20:00 +12°C° 0.4 mm 8 mps 768 mmHg 48%
    21:00 +12°C° 0.2 mm 8 mps 767 mmHg 49%
    22:00 +11°C° 0.2 mm 7 mps 767 mmHg 50%
    23:00 +11°C° 0.2 mm 7 mps 767 mmHg 50%
    Show more